• In Latvia
  • List of Countries
  • For 7 days
  • Water Temperature
  • Satellite Maps
  • Weather Map
  • Weather Widgets
  • user-avatar
    Login

    Hourly Weather San Luis

    Today, 24 January, Tuesday

    Time Temperature Precipitation Wind Pressure Humidity
    00:00 +27°C° 0 mm 5 mps 696 mmHg 33%
    01:00 +27°C° 0 mm 5 mps 696 mmHg 33%
    02:00 +27°C° 0 mm 5 mps 696 mmHg 33%
    03:00 +26°C° 0.2 mm 5 mps 696 mmHg 39%
    04:00 +25°C° 0.2 mm 4 mps 696 mmHg 45%
    05:00 +24°C° 0.2 mm 3 mps 697 mmHg 51%
    06:00 +23°C° 0.1 mm 5 mps 697 mmHg 48%
    07:00 +24°C° 0.1 mm 6 mps 698 mmHg 44%
    08:00 +24°C° 0.1 mm 7 mps 699 mmHg 41%
    09:00 +26°C° 0 mm 6 mps 699 mmHg 36%
    10:00 +28°C° 0 mm 6 mps 700 mmHg 32%
    11:00 +29°C° 0 mm 5 mps 700 mmHg 27%
    12:00 +30°C° 0.1 mm 5 mps 700 mmHg 25%
    13:00 +32°C° 0.1 mm 5 mps 699 mmHg 24%
    14:00 +33°C° 0.1 mm 5 mps 699 mmHg 22%
    15:00 +33°C° 0 mm 5 mps 699 mmHg 21%
    16:00 +33°C° 0 mm 5 mps 698 mmHg 21%
    17:00 +33°C° 0 mm 5 mps 698 mmHg 21%
    18:00 +30°C° 0 mm 5 mps 698 mmHg 24%
    19:00 +29°C° 0 mm 4 mps 698 mmHg 26%
    20:00 +27°C° 0 mm 4 mps 698 mmHg 29%
    21:00 +26°C° 0 mm 3 mps 698 mmHg 30%
    22:00 +25°C° 0 mm 3 mps 699 mmHg 31%
    23:00 +24°C° 0 mm 3 mps 700 mmHg 32%

    Tomorrow, 25 January, Wednesday

    Time Temperature Precipitation Wind Pressure Humidity
    00:00 +22°C° 0 mm 3 mps 699 mmHg 32%
    01:00 +22°C° 0 mm 3 mps 699 mmHg 32%
    02:00 +21°C° 0 mm 4 mps 699 mmHg 32%
    03:00 +21°C° 0 mm 4 mps 699 mmHg 34%
    04:00 +20°C° 0 mm 4 mps 699 mmHg 36%
    05:00 +20°C° 0 mm 4 mps 699 mmHg 38%
    06:00 +22°C° 0 mm 4 mps 700 mmHg 35%
    07:00 +24°C° 0 mm 3 mps 701 mmHg 33%
    08:00 +26°C° 0 mm 3 mps 701 mmHg 30%
    09:00 +28°C° 0 mm 3 mps 701 mmHg 26%
    10:00 +30°C° 0 mm 2 mps 702 mmHg 22%
    11:00 +32°C° 0 mm 2 mps 702 mmHg 19%
    12:00 +32°C° 0 mm 2 mps 702 mmHg 18%
    13:00 +34°C° 0 mm 2 mps 701 mmHg 17%
    14:00 +35°C° 0 mm 3 mps 701 mmHg 17%
    15:00 +35°C° 0 mm 4 mps 701 mmHg 17%
    16:00 +35°C° 0 mm 4 mps 700 mmHg 17%
    17:00 +35°C° 0 mm 5 mps 700 mmHg 17%
    18:00 +33°C° 0 mm 6 mps 700 mmHg 21%
    19:00 +29°C° 0 mm 7 mps 701 mmHg 24%
    20:00 +27°C° 0 mm 8 mps 701 mmHg 28%
    21:00 +26°C° 0 mm 8 mps 702 mmHg 29%
    22:00 +23°C° 0 mm 8 mps 703 mmHg 30%
    23:00 +22°C° 0 mm 8 mps 703 mmHg 31%

    Day after tomorrow, 26 January, Thursday

    Time Temperature Precipitation Wind Pressure Humidity
    00:00 +22°C° 0 mm 7 mps 703 mmHg 32%
    01:00 +21°C° 0 mm 6 mps 703 mmHg 34%
    02:00 +20°C° 0 mm 5 mps 703 mmHg 35%
    03:00 +20°C° 0 mm 5 mps 703 mmHg 37%
    04:00 +19°C° 0 mm 4 mps 703 mmHg 39%
    05:00 +18°C° 0 mm 4 mps 703 mmHg 41%
    06:00 +20°C° 0 mm 3 mps 704 mmHg 38%
    07:00 +21°C° 0 mm 3 mps 705 mmHg 35%
    08:00 +24°C° 0 mm 3 mps 705 mmHg 32%
    09:00 +26°C° 0 mm 3 mps 705 mmHg 29%
    10:00 +27°C° 0 mm 3 mps 705 mmHg 26%
    11:00 +29°C° 0 mm 3 mps 706 mmHg 23%
    12:00 +30°C° 0 mm 2 mps 705 mmHg 22%
    13:00 +31°C° 0 mm 2 mps 704 mmHg 20%
    14:00 +32°C° 0 mm 2 mps 704 mmHg 19%
    15:00 +32°C° 0 mm 2 mps 703 mmHg 18%
    16:00 +34°C° 0 mm 2 mps 703 mmHg 18%
    17:00 +34°C° 0 mm 3 mps 702 mmHg 17%
    18:00 +31°C° 0 mm 3 mps 702 mmHg 19%
    19:00 +29°C° 0 mm 3 mps 702 mmHg 22%
    20:00 +27°C° 0 mm 4 mps 701 mmHg 24%
    21:00 +26°C° 0 mm 4 mps 702 mmHg 25%
    22:00 +25°C° 0 mm 4 mps 702 mmHg 26%
    23:00 +23°C° 0 mm 4 mps 702 mmHg 27%

    27 January, Friday

    Time Temperature Precipitation Wind Pressure Humidity
    00:00 +23°C° 0 mm 4 mps 701 mmHg 29%
    01:00 +23°C° 0 mm 4 mps 701 mmHg 30%
    02:00 +22°C° 0 mm 4 mps 701 mmHg 32%
    03:00 +22°C° 0 mm 4 mps 700 mmHg 33%
    04:00 +22°C° 0 mm 5 mps 700 mmHg 33%
    05:00 +22°C° 0 mm 5 mps 700 mmHg 34%
    06:00 +24°C° 0 mm 6 mps 700 mmHg 32%
    07:00 +26°C° 0 mm 7 mps 701 mmHg 31%
    08:00 +27°C° 0 mm 8 mps 701 mmHg 29%
    09:00 +29°C° 0 mm 7 mps 701 mmHg 26%
    10:00 +32°C° 0 mm 7 mps 701 mmHg 23%
    11:00 +34°C° 0 mm 6 mps 702 mmHg 21%
    12:00 +35°C° 0 mm 5 mps 701 mmHg 19%
    13:00 +36°C° 0 mm 5 mps 700 mmHg 18%
    14:00 +37°C° 0 mm 4 mps 700 mmHg 16%
    15:00 +37°C° 0 mm 4 mps 699 mmHg 16%
    16:00 +37°C° 0 mm 4 mps 699 mmHg 16%
    17:00 +38°C° 0 mm 4 mps 698 mmHg 15%
    18:00 +35°C° 0 mm 4 mps 698 mmHg 18%
    19:00 +33°C° 0 mm 4 mps 698 mmHg 21%
    20:00 +30°C° 0 mm 4 mps 697 mmHg 24%
    21:00 +29°C° 0 mm 5 mps 698 mmHg 24%
    22:00 +28°C° 0 mm 5 mps 698 mmHg 24%
    23:00 +27°C° 0 mm 5 mps 698 mmHg 25%

    28 January, Saturday

    Time Temperature Precipitation Wind Pressure Humidity
    00:00 +27°C° 0 mm 6 mps 698 mmHg 25%
    01:00 +27°C° 0 mm 6 mps 698 mmHg 26%
    02:00 +27°C° 0 mm 7 mps 697 mmHg 26%
    03:00 +26°C° 0 mm 7 mps 697 mmHg 27%
    04:00 +26°C° 0 mm 7 mps 697 mmHg 27%
    05:00 +26°C° 0 mm 8 mps 697 mmHg 27%
    06:00 +27°C° 0 mm 8 mps 697 mmHg 26%
    07:00 +28°C° 0 mm 9 mps 698 mmHg 25%
    08:00 +29°C° 0 mm 9 mps 698 mmHg 24%
    09:00 +32°C° 0 mm 9 mps 698 mmHg 22%
    10:00 +34°C° 0 mm 8 mps 698 mmHg 19%
    11:00 +38°C° 0 mm 8 mps 699 mmHg 16%
    12:00 +39°C° 0 mm 8 mps 698 mmHg 15%
    13:00 +40°C° 0 mm 7 mps 697 mmHg 13%
    14:00 +41°C° 0 mm 7 mps 697 mmHg 12%
    15:00 +41°C° 0 mm 7 mps 696 mmHg 12%
    16:00 +41°C° 0 mm 8 mps 696 mmHg 11%
    17:00 +40°C° 0 mm 8 mps 695 mmHg 11%
    18:00 +38°C° 0 mm 7 mps 695 mmHg 14%
    19:00 +34°C° 0 mm 6 mps 695 mmHg 16%
    20:00 +30°C° 0 mm 5 mps 695 mmHg 18%
    21:00 +30°C° 0 mm 5 mps 695 mmHg 19%
    22:00 +29°C° 0 mm 6 mps 695 mmHg 19%
    23:00 +29°C° 0 mm 6 mps 696 mmHg 20%

    29 January, Sunday

    Time Temperature Precipitation Wind Pressure Humidity
    00:00 +29°C° 0 mm 7 mps 695 mmHg 20%
    01:00 +28°C° 0 mm 8 mps 695 mmHg 20%
    02:00 +28°C° 0 mm 8 mps 695 mmHg 21%
    03:00 +28°C° 0 mm 8 mps 695 mmHg 22%
    04:00 +27°C° 0 mm 8 mps 695 mmHg 22%
    05:00 +27°C° 0 mm 8 mps 695 mmHg 23%
    06:00 +28°C° 0 mm 9 mps 695 mmHg 22%
    07:00 +29°C° 0 mm 10 mps 696 mmHg 21%
    08:00 +31°C° 0 mm 10 mps 697 mmHg 21%
    09:00 +33°C° 0 mm 10 mps 697 mmHg 19%
    10:00 +36°C° 0 mm 10 mps 697 mmHg 17%
    11:00 +38°C° 0 mm 10 mps 697 mmHg 15%
    12:00 +39°C° 0 mm 9 mps 696 mmHg 13%
    13:00 +40°C° 0 mm 9 mps 696 mmHg 12%
    14:00 +42°C° 0 mm 9 mps 695 mmHg 11%
    15:00 +41°C° 0 mm 8 mps 695 mmHg 10%
    16:00 +41°C° 0 mm 8 mps 694 mmHg 10%
    17:00 +41°C° 0 mm 8 mps 694 mmHg 10%
    18:00 +39°C° 0 mm 7 mps 694 mmHg 12%
    19:00 +35°C° 0 mm 6 mps 694 mmHg 14%
    20:00 +33°C° 0 mm 4 mps 693 mmHg 16%
    21:00 +32°C° 0 mm 5 mps 694 mmHg 16%
    22:00 +30°C° 0 mm 6 mps 694 mmHg 17%
    23:00 +29°C° 0 mm 6 mps 695 mmHg 18%
    Show more